Sheldon, IA

10:24 AM CDT on April 23, 2018 (GMT -0500)
Sheldon Municipal

Weather History for KSHL - October, 2012

Change the Weather History Date:

Thursday, October 4, 2012

  Actual Average Record
Temperature  
Mean Temperature 43 °F -  
Max Temperature 51 °F 65 °F 87 °F (2011)
Min Temperature 35 °F 40 °F 25 °F (1950)
Degree Days  
Heating Degree Days 22    
Moisture  
Dew Point 32 °F    
Average Humidity 61    
Maximum Humidity 81    
Minimum Humidity 41    
Precipitation  
Precipitation 0.00 in - - ()
Sea Level Pressure  
Sea Level Pressure 30.14 in    
Wind  
Wind Speed 22 mph (NW)    
Max Wind Speed 31 mph    
Max Gust Speed 39 mph    
Visibility 10 miles    
Events      
Averages and records for this station are not official NWS values.
T = Trace of Precipitation, MM = Missing Value Source: NWS Daily Summary

Daily Weather History Graph

Daily Weather History Graph

Search for Another Location

Airport or City:

Astronomy

Oct. 04, 2012 Rise Set
Actual Time 7:24 AM CDT 6:58 PM CDT
Civil Twilight 6:56 AM CDT 7:26 PM CDT
Nautical Twilight 6:23 AM CDT 7:59 PM CDT
Astronomical Twilight 5:50 AM CDT 8:32 PM CDT
Moon 9:27 PM CDT (10/4) 11:50 AM CDT (10/4)
Length of Visible Light 12h 30m
Length of Day
11h 33m
Waning Gibbous, 82% of the Moon is Illuminated
Oct 4
Waning Gibbous
Oct 8
Last Quarter
Oct 15
New
Oct 21
First Quarter
Oct 29
Full

Hourly Weather History & Observations

Time (CDT) Temp. Windchill Dew Point Humidity Pressure Visibility Wind Dir Wind Speed Gust Speed Precip Events Conditions
12:15 AM 50.0 °F - 39.2 °F 66% 29.90 in 6.0 mi West 26.5 mph - N/A   Haze
12:35 AM 50.0 °F - 39.2 °F 66% 29.90 in 8.0 mi WNW 26.5 mph 33.4 mph N/A   Overcast
12:55 AM 50.0 °F - 39.2 °F 66% 29.90 in 9.0 mi North - - N/A   Mostly Cloudy
1:15 AM 48.2 °F - 39.2 °F 71% 29.92 in 10.0 mi WNW 23.0 mph 31.1 mph N/A   Mostly Cloudy
1:35 AM 50.0 °F - 41.0 °F 71% 29.93 in 10.0 mi WNW 19.6 mph 28.8 mph N/A   Mostly Cloudy
1:55 AM 50.0 °F - 39.2 °F 66% 29.94 in 6.0 mi WNW 23.0 mph 33.4 mph N/A   Haze
2:15 AM 48.2 °F - 39.2 °F 71% 29.96 in 4.0 mi WNW 25.3 mph 39.1 mph N/A   Haze
2:35 AM 46.4 °F 38.7 °F 39.2 °F 76% 29.96 in 10.0 mi WNW 20.7 mph 31.1 mph N/A   Overcast
2:55 AM 46.4 °F 39.5 °F 39.2 °F 76% 29.96 in 10.0 mi WNW 17.3 mph 25.3 mph N/A   Overcast
3:15 AM 46.4 °F 39.0 °F 39.2 °F 76% 29.97 in 10.0 mi WNW 19.6 mph 31.1 mph N/A   Overcast
3:35 AM 46.4 °F 37.9 °F 39.2 °F 76% 29.97 in 10.0 mi WNW 25.3 mph 33.4 mph N/A   Overcast
3:55 AM 46.4 °F 37.0 °F 37.4 °F 71% 29.97 in 8.0 mi WNW 31.1 mph 39.1 mph N/A   Overcast
4:15 AM 44.6 °F 36.1 °F 37.4 °F 76% 30.01 in 9.0 mi WNW 21.9 mph 36.8 mph N/A   Overcast
4:35 AM 42.8 °F 33.3 °F 37.4 °F 81% 30.01 in 10.0 mi WNW 24.2 mph 35.7 mph N/A   Overcast
4:55 AM 42.8 °F 33.8 °F 37.4 °F 81% 30.03 in 10.0 mi WNW 21.9 mph 34.5 mph N/A   Overcast
5:15 AM 41.0 °F 31.4 °F 35.6 °F 81% 30.04 in 10.0 mi WNW 21.9 mph 32.2 mph N/A   Overcast
5:35 AM 41.0 °F 32.8 °F 35.6 °F 81% 30.04 in 10.0 mi WNW 16.1 mph 26.5 mph N/A   Overcast
5:55 AM 41.0 °F 32.8 °F 35.6 °F 81% 30.06 in 10.0 mi WNW 16.1 mph 24.2 mph N/A   Mostly Cloudy
6:15 AM 42.8 °F 34.0 °F 33.8 °F 70% 30.06 in 10.0 mi WNW 20.7 mph - N/A   Overcast
6:35 AM 41.0 °F 31.6 °F 35.6 °F 81% 30.07 in 10.0 mi WNW 20.7 mph - N/A   Overcast
6:55 AM 41.0 °F 31.4 °F 35.6 °F 81% 30.07 in 10.0 mi NW 21.9 mph 29.9 mph N/A   Overcast
7:15 AM 41.0 °F 32.8 °F 35.6 °F 81% 30.09 in 8.0 mi WNW 16.1 mph 25.3 mph N/A   Overcast
7:35 AM 41.0 °F 31.6 °F 35.6 °F 81% 30.10 in 10.0 mi WNW 20.7 mph 33.4 mph N/A   Overcast
7:55 AM 41.0 °F 31.4 °F 33.8 °F 76% 30.11 in 10.0 mi NW 21.9 mph - N/A   Overcast
8:15 AM 41.0 °F 31.6 °F 33.8 °F 76% 30.11 in 10.0 mi WNW 20.7 mph 28.8 mph N/A   Overcast
8:35 AM 41.0 °F 31.4 °F 33.8 °F 76% 30.12 in 10.0 mi NW 21.9 mph 28.8 mph N/A   Overcast
8:55 AM 41.0 °F 31.1 °F 33.8 °F 76% 30.13 in 10.0 mi NW 23.0 mph 28.8 mph N/A   Overcast
9:15 AM 42.8 °F 34.0 °F 33.8 °F 70% 30.13 in 10.0 mi NW 20.7 mph 32.2 mph N/A   Overcast
9:35 AM 42.8 °F 32.9 °F 32.0 °F 66% 30.13 in 10.0 mi NW 26.5 mph 36.8 mph N/A   Overcast
9:55 AM 42.8 °F 32.1 °F 32.0 °F 66% 30.14 in - NW 31.1 mph - N/A   Overcast
10:15 AM 44.6 °F 35.3 °F 32.0 °F 61% 30.14 in 9.0 mi NW 26.5 mph 35.7 mph N/A   Overcast
10:35 AM 44.6 °F 34.9 °F 32.0 °F 61% 30.15 in 9.0 mi NW 28.8 mph 34.5 mph N/A   Overcast
10:55 AM 46.4 °F 37.9 °F 32.0 °F 57% 30.16 in 10.0 mi WNW 25.3 mph 35.7 mph N/A   Overcast
11:15 AM 46.4 °F 37.9 °F 32.0 °F 57% 30.16 in 9.0 mi NW 25.3 mph 35.7 mph N/A   Mostly Cloudy
11:35 AM 48.2 °F - 32.0 °F 54% 30.16 in 8.0 mi NW 27.6 mph 39.1 mph N/A   Scattered Clouds
11:55 AM 48.2 °F - 30.2 °F 50% 30.18 in 10.0 mi NNW 21.9 mph 33.4 mph N/A   Scattered Clouds
12:15 PM 48.2 °F - 30.2 °F 50% 30.18 in 9.0 mi NW 23.0 mph 36.8 mph N/A   Mostly Cloudy
12:35 PM 48.2 °F - 30.2 °F 50% 30.19 in 10.0 mi NW 25.3 mph 33.4 mph N/A   Mostly Cloudy
12:55 PM 48.2 °F - 30.2 °F 50% 30.19 in 9.0 mi NW 24.2 mph 34.5 mph N/A   Mostly Cloudy
1:35 PM 50.0 °F - 30.2 °F 47% 30.20 in 9.0 mi NW 18.4 mph 32.2 mph N/A   Partly Cloudy
1:55 PM 50.0 °F - 30.2 °F 47% 30.20 in 9.0 mi NW 21.9 mph 33.4 mph N/A   Partly Cloudy
2:15 PM 50.0 °F - 30.2 °F 47% 30.19 in 10.0 mi NW 23.0 mph 34.5 mph N/A   Clear
2:35 PM 51.8 °F - 30.2 °F 44% 30.19 in 10.0 mi NW 26.5 mph - N/A   Clear
2:55 PM 51.8 °F - 30.2 °F 44% 30.20 in 10.0 mi NW 25.3 mph - N/A   Clear
3:15 PM 51.8 °F - 30.2 °F 44% 30.20 in 10.0 mi NW 23.0 mph 29.9 mph N/A   Clear
3:35 PM 51.8 °F - 30.2 °F 44% 30.20 in 10.0 mi NW 23.0 mph 29.9 mph N/A   Clear
3:55 PM 51.8 °F - 28.4 °F 41% 30.20 in 10.0 mi NW 21.9 mph 31.1 mph N/A   Partly Cloudy
4:15 PM 51.8 °F - 30.2 °F 44% 30.21 in 10.0 mi NW 23.0 mph 28.8 mph N/A   Scattered Clouds
4:35 PM 51.8 °F - 28.4 °F 41% 30.21 in 10.0 mi NW 19.6 mph 26.5 mph N/A   Partly Cloudy
4:55 PM 50.0 °F - 28.4 °F 43% 30.22 in 10.0 mi NW 19.6 mph 29.9 mph N/A   Partly Cloudy
5:15 PM 50.0 °F - 28.4 °F 43% 30.22 in 10.0 mi NW 21.9 mph - N/A   Clear
5:35 PM 48.2 °F - 28.4 °F 46% 30.23 in 10.0 mi NW 17.3 mph 24.2 mph N/A   Clear
5:55 PM 48.2 °F - 28.4 °F 46% 30.23 in 10.0 mi NW 18.4 mph - N/A   Partly Cloudy
6:15 PM 48.2 °F - 28.4 °F 46% 30.23 in 9.0 mi NW 19.6 mph 25.3 mph N/A   Mostly Cloudy
6:35 PM 46.4 °F 38.5 °F 28.4 °F 50% 30.24 in 10.0 mi NW 21.9 mph - N/A   Mostly Cloudy
6:55 PM 44.6 °F 36.9 °F 28.4 °F 53% 30.25 in - NW 18.4 mph - N/A   Mostly Cloudy
7:15 PM 44.6 °F 37.4 °F 28.4 °F 53% 30.25 in 10.0 mi NW 16.1 mph 23.0 mph N/A   Partly Cloudy
7:35 PM 42.8 °F 36.2 °F 28.4 °F 57% 30.26 in 10.0 mi NW 12.7 mph 19.6 mph N/A   Partly Cloudy
7:55 PM 42.8 °F 37.5 °F 28.4 °F 57% 30.27 in 10.0 mi NW 9.2 mph - N/A   Mostly Cloudy
8:15 PM 44.6 °F 37.4 °F 28.4 °F 53% 30.26 in 10.0 mi NW 16.1 mph 24.2 mph N/A   Overcast
8:35 PM 42.8 °F 35.4 °F 28.4 °F 57% 30.26 in 10.0 mi NNW 15.0 mph 20.7 mph N/A   Overcast
8:55 PM 42.8 °F 34.3 °F 26.6 °F 53% 30.26 in 10.0 mi NNW 19.6 mph - N/A   Scattered Clouds
9:15 PM 42.8 °F 35.1 °F 26.6 °F 53% 30.27 in 10.0 mi NNW 16.1 mph 21.9 mph N/A   Scattered Clouds
9:35 PM 42.8 °F 35.4 °F 26.6 °F 53% 30.27 in 10.0 mi NW 15.0 mph 24.2 mph N/A   Mostly Cloudy
9:55 PM 42.8 °F 34.8 °F 26.6 °F 53% 30.26 in 10.0 mi NNW 17.3 mph - N/A   Mostly Cloudy
10:15 PM 41.0 °F 34.3 °F 26.6 °F 57% 30.26 in 10.0 mi NW 11.5 mph - N/A   Scattered Clouds
10:35 PM 39.2 °F 33.6 °F 26.6 °F 61% 30.27 in 10.0 mi NW 8.1 mph - N/A   Scattered Clouds
10:55 PM 37.4 °F 32.1 °F 26.6 °F 65% 30.27 in 10.0 mi NW 6.9 mph - N/A   Partly Cloudy
11:15 PM 39.2 °F 34.2 °F 26.6 °F 61% 30.28 in 10.0 mi WNW 6.9 mph - N/A   Clear
11:35 PM 35.6 °F 29.9 °F 24.8 °F 65% 30.28 in 10.0 mi West 6.9 mph - N/A   Clear
11:55 PM 35.6 °F 29.2 °F 24.8 °F 65% 30.28 in 10.0 mi West 8.1 mph - N/A   Clear